[[{"header":{"parameterUnit":"m.s-1","parameterCategory":1,"la1":30.2991,"la2":30.254,"lo1":-89.0895,"lo2":-89.0444,"dy":0.0017,"dx":0.0017,"nx":28,"ny":28,"refTime":"2024-03-11T09:00:00:Z","depth":0,"parameterNumber":2,"parameterNumberName":"U-component_of_WINDS"},"data":[0,0,0,0,0,0,0,0,0,0,0,0,0,0,0,0,0,0,0,0,0,0,0,0,0,0,0,0,0,0,0,0,0,0,0,0,0,0,0,0,0,0,0,0,0,0,0,0,0,0,0,0,0,0,0,0,0,0,-1.6563,-1.6562,0,-1.6522,-1.6522,-1.6521,-1.646,-1.6459,-1.6458,-1.6457,-1.6415,-1.6415,-1.6414,0,0,0,0,0,0,0,0,0,0,0,0,0,-1.659,-1.659,-1.6563,-1.6562,-1.6562,-1.6522,-1.6522,-1.6521,-1.6461,-1.6459,-1.6458,-1.6457,-1.6415,-1.6415,-1.6414,0,0,0,0,0,0,0,0,0,0,0,0,0,-1.6567,-1.659,-1.6563,-1.6527,-1.6523,-1.6522,-1.6522,-1.6521,-1.6461,-1.6459,-1.6458,-1.6456,-1.6415,-1.6415,-1.6414,-1.6445,0,0,-1.6414,-1.6414,0,0,0,0,0,0,0,0,-1.6568,-1.6566,-1.6533,-1.6529,-1.6525,-1.6495,-1.6515,-1.6495,-1.6461,-1.6485,-1.6457,-1.6455,-1.6443,-1.644,-1.6436,-1.6443,-1.6441,-1.6414,-1.6414,-1.6414,-1.6414,0,0,0,0,0,0,0,-1.657,-1.6567,-1.6547,-1.6532,-1.6528,-1.6513,-1.6508,-1.6511,-1.6473,-1.6482,-1.6478,-1.6474,-1.644,-1.6436,-1.6434,-1.6441,-1.6414,-1.6414,-1.6414,-1.6413,-1.6474,-1.6475,0,0,0,0,0,0,-1.6576,-1.6569,-1.6548,-1.6545,-1.6543,-1.6514,-1.6508,-1.6506,-1.6473,-1.6466,-1.6475,-1.6471,-1.6437,-1.6435,-1.6433,-1.6467,-1.6414,-1.6413,-1.6413,-1.6472,-1.6474,-1.6476,0,0,0,0,0,0,-1.6577,-1.6575,-1.655,-1.6556,-1.6552,-1.6515,-1.6513,-1.6506,-1.6502,-1.6467,-1.646,-1.6478,-1.6436,-1.6433,-1.6443,-1.6465,-1.6413,-1.6413,-1.647,-1.6473,-1.6475,-1.6536,0,0,0,0,0,0,-1.6578,-1.6576,-1.6586,-1.6557,-1.6551,-1.656,-1.6515,-1.6507,-1.6502,-1.6496,-1.6468,-1.6462,-1.6434,-1.6444,-1.6443,-1.6464,-1.6413,-1.6468,-1.6471,-1.6474,-1.6532,-1.654,-1.6548,0,0,0,0,0,-1.6579,-1.6605,-1.6587,-1.6585,-1.6564,-1.6562,-1.6559,-1.6527,-1.6504,-1.6515,-1.6493,-1.6463,-1.6463,-1.6445,-1.6444,-1.6465,-1.6466,-1.647,-1.6474,-1.6528,-1.6539,-1.6548,0,0,0,0,0,0,-1.6637,-1.66,-1.658,-1.6596,-1.6583,-1.6551,-1.6563,-1.6538,-1.653,-1.6525,-1.6486,-1.648,-1.6496,-1.6481,-1.6462,-1.6494,-1.646,-1.6464,-1.6502,-1.6512,-1.652,-1.6522,-1.6413,0,0,0,0,0,-1.6652,-1.6653,-1.6621,-1.6638,-1.6632,-1.66,-1.6597,-1.6574,-1.6558,-1.6552,-1.6531,-1.6517,-1.6514,-1.6512,-1.6507,-1.6531,-1.6524,-1.6545,-1.6553,-1.6559,-1.6562,-1.6575,-1.6584,-1.6489,-1.6489,-1.6489,0,0,-1.6682,-1.6662,-1.6664,-1.6649,-1.6636,-1.6638,-1.6595,-1.6599,-1.66,-1.6552,-1.656,-1.6545,-1.6527,-1.6544,-1.6551,-1.6533,-1.6588,-1.6564,-1.657,-1.6569,-1.658,-1.6589,-1.6597,-1.6491,-1.6491,-1.649,0,0,-1.6737,-1.6722,-1.6736,-1.6724,-1.6705,-1.6684,-1.6687,-1.666,-1.6649,-1.6657,-1.6621,-1.6623,-1.6619,-1.6607,-1.6601,-1.6657,-1.6629,-1.6657,-1.6697,-1.671,-1.6718,-1.6724,-1.6744,-1.6752,-1.6661,-1.6661,-1.6661,0,-1.6776,-1.6778,-1.6746,-1.6753,-1.6747,-1.6706,-1.672,-1.671,-1.6691,-1.6688,-1.6669,-1.6664,-1.6649,-1.6663,-1.6678,-1.6674,-1.6677,-1.6659,-1.6719,-1.6726,-1.6731,-1.675,-1.6757,-1.6664,-1.6664,-1.6664,-1.6663,0,-1.6828,-1.683,-1.6844,-1.6827,-1.6824,-1.6834,-1.6804,-1.6805,-1.6783,-1.6764,-1.6774,-1.6755,-1.6747,-1.6749,-1.6727,-1.6762,-1.6751,-1.6727,-1.6691,-1.6744,-1.6761,-1.6768,-1.6669,-1.6668,-1.6667,-1.6666,0,0,-1.6915,-1.6883,-1.6888,-1.6881,-1.6859,-1.686,-1.687,-1.6862,-1.6864,-1.6853,-1.686,-1.6859,-1.6837,-1.683,-1.6808,-1.6819,-1.6866,-1.6793,-1.6792,-1.6807,-1.6903,-1.6921,-1.6929,-1.6848,-1.685,-1.6851,-1.6904,0,-1.6965,-1.6979,-1.6952,-1.6973,-1.6975,-1.6938,-1.6947,-1.6935,-1.6918,-1.6919,-1.6901,-1.6901,-1.6871,-1.6867,-1.6877,-1.6858,-1.6884,-1.6854,-1.6855,-1.6855,-1.6859,-1.6938,-1.6956,-1.7008,-1.6911,-1.6912,-1.6913,0,-1.7025,-1.7018,-1.7039,-1.7018,-1.7018,-1.7026,-1.7019,-1.7019,-1.7006,-1.6993,-1.6988,-1.6962,-1.6971,-1.694,-1.6952,-1.6932,-1.6932,-1.6923,-1.6924,-1.6921,-1.6886,-1.6937,-1.7023,-1.7031,-1.6923,-1.6922,-1.6921,0,-1.7086,-1.7083,-1.7095,-1.709,-1.7066,-1.7073,-1.7063,-1.7048,-1.7046,-1.704,-1.7038,-1.7033,-1.703,-1.7028,-1.7002,-1.6981,-1.7018,-1.6984,-1.7008,-1.7009,-1.7015,-1.7015,-1.7102,-1.7017,-1.7017,-1.7017,-1.7017,0,-1.7144,-1.7158,-1.7122,-1.713,-1.7146,-1.7116,-1.7132,-1.7119,-1.7107,-1.7112,-1.708,-1.7086,-1.7052,-1.7054,-1.7035,-1.7048,-1.7047,-1.7038,-1.7032,-1.704,-1.7041,-1.7037,-1.7033,-1.7019,-1.7019,-1.7018,-1.7018,0,-1.7213,-1.719,-1.7201,-1.7179,-1.7173,-1.7186,-1.7167,-1.7173,-1.7157,-1.7164,-1.7164,-1.7137,-1.7139,-1.7114,-1.711,-1.7097,-1.7119,-1.7108,-1.7124,-1.712,-1.7145,-1.7143,-1.7232,-1.7242,-1.7152,-1.7153,-1.7154,0,-1.7251,-1.7262,-1.7241,-1.7242,-1.7234,-1.7237,-1.7235,-1.7207,-1.7207,-1.7195,-1.7203,-1.7203,-1.72,-1.7204,-1.7185,-1.7183,-1.717,-1.7202,-1.7169,-1.7178,-1.717,-1.7169,-1.7171,-1.7208,-1.7209,-1.721,-1.7211,0,-1.7321,-1.7309,-1.7308,-1.7305,-1.7304,-1.7299,-1.7293,-1.7296,-1.7265,-1.7267,-1.7269,-1.7267,-1.7265,-1.7265,-1.7259,-1.725,-1.7226,-1.7222,-1.7227,-1.7234,-1.7243,-1.7238,-1.7141,-1.7219,-1.7218,-1.7217,-1.7217,-1.7217,-1.7375,-1.7383,-1.737,-1.7371,-1.7364,-1.7359,-1.7365,-1.735,-1.7351,-1.7346,-1.7331,-1.7335,-1.7324,-1.7315,-1.7308,-1.7312,-1.7296,-1.7304,-1.7306,-1.7308,-1.7313,-1.7244,-1.7311,-1.7311,-1.731,-1.731,-1.731,0,-1.7442,-1.7433,-1.7434,-1.7427,-1.7428,-1.7407,-1.7399,-1.7402,-1.7406,-1.7398,-1.7398,-1.7401,-1.7401,-1.7384,-1.7382,-1.7389,-1.7378,-1.739,-1.7388,-1.7386,-1.7327,-1.7322,-1.7399,-1.7399,-1.7399,-1.7398,-1.7398,-1.7398,-1.7477,-1.749,-1.7478,-1.7488,-1.7479,-1.7484,-1.7482,-1.7478,-1.7471,-1.7476,-1.7477,-1.7466,-1.7455,-1.7453,-1.7453,-1.7448,-1.7449,-1.7464,-1.7455,-1.7399,-1.739,-1.7382,-1.7377,-1.7464,-1.7465,-1.7514,-1.7515,-1.7515]},{"header":{"parameterUnit":"m.s-1","parameterCategory":1,"la1":30.2991,"la2":30.254,"lo1":-89.0895,"lo2":-89.0444,"dy":0.0017,"dx":0.0017,"nx":28,"ny":28,"refTime":"2024-03-11T09:00:00:Z","depth":0,"parameterNumber":3,"parameterNumberName":"V-component_of_WINDS"},"data":[0,0,0,0,0,0,0,0,0,0,0,0,0,0,0,0,0,0,0,0,0,0,0,0,0,0,0,0,0,0,0,0,0,0,0,0,0,0,0,0,0,0,0,0,0,0,0,0,0,0,0,0,0,0,0,0,0,0,2.7906,2.7906,0,2.793,2.793,2.793,2.7989,2.799,2.7992,2.7993,2.8013,2.8012,2.8012,0,0,0,0,0,0,0,0,0,0,0,0,0,2.7908,2.7907,2.7906,2.7906,2.7906,2.793,2.793,2.793,2.7989,2.799,2.7992,2.7993,2.8013,2.8012,2.8012,0,0,0,0,0,0,0,0,0,0,0,0,0,2.7917,2.7907,2.7906,2.7938,2.7942,2.7929,2.793,2.793,2.7989,2.799,2.7992,2.7994,2.8013,2.8012,2.8011,2.7968,0,0,2.8009,2.8008,0,0,0,0,0,0,0,0,2.7916,2.7916,2.7933,2.7936,2.794,2.7958,2.7938,2.7943,2.7988,2.7971,2.7993,2.7995,2.7993,2.7994,2.7994,2.7969,2.797,2.8008,2.8008,2.8007,2.8007,0,0,0,0,0,0,0,2.7915,2.7916,2.7915,2.7933,2.7937,2.7951,2.7954,2.7939,2.7971,2.7972,2.7977,2.7979,2.7995,2.7995,2.7995,2.797,2.8009,2.8008,2.8007,2.8007,2.7911,2.7909,0,0,0,0,0,0,2.7911,2.7915,2.7914,2.7916,2.7932,2.7949,2.7953,2.795,2.7971,2.7976,2.7977,2.7982,2.7995,2.7996,2.7996,2.7947,2.8008,2.8007,2.8006,2.7913,2.7911,2.7909,0,0,0,0,0,0,2.791,2.791,2.7913,2.7917,2.7918,2.7947,2.7944,2.795,2.795,2.7975,2.7981,2.7971,2.7997,2.7997,2.7975,2.7948,2.8006,2.8005,2.7915,2.7912,2.791,2.7847,0,0,0,0,0,0,2.791,2.7909,2.7894,2.7916,2.7918,2.7893,2.7942,2.7949,2.7948,2.7954,2.7971,2.7975,2.7998,2.7976,2.7974,2.7948,2.8005,2.7918,2.7914,2.7911,2.7852,2.7843,2.7835,0,0,0,0,0,2.791,2.7874,2.7893,2.7892,2.7899,2.7891,2.7892,2.792,2.7946,2.793,2.7947,2.7975,2.7952,2.7973,2.7971,2.7945,2.792,2.7915,2.7911,2.7856,2.7845,2.7835,0,0,0,0,0,0,2.7846,2.7878,2.7898,2.7869,2.7877,2.7901,2.7882,2.7907,2.7907,2.7912,2.7947,2.795,2.7923,2.7932,2.7955,2.7904,2.794,2.7935,2.7899,2.7889,2.788,2.7878,2.8004,0,0,0,0,0,2.7829,2.7822,2.7849,2.782,2.7823,2.7852,2.7849,2.7871,2.788,2.7883,2.7898,2.7905,2.7899,2.7894,2.7891,2.7854,2.7858,2.7835,2.7826,2.7819,2.7814,2.7796,2.7785,2.7894,2.7894,2.7894,0,0,2.7793,2.7809,2.7802,2.7808,2.7817,2.7807,2.7854,2.7842,2.7834,2.7881,2.7861,2.7872,2.7882,2.7853,2.784,2.7859,2.7785,2.7813,2.7807,2.7806,2.779,2.778,2.777,2.7891,2.7892,2.7892,0,0,2.7723,2.7734,2.7712,2.772,2.7734,2.7753,2.7748,2.7768,2.7778,2.7759,2.7794,2.7786,2.7775,2.7781,2.7782,2.7715,2.7741,2.7713,2.7668,2.765,2.7641,2.7634,2.761,2.7601,2.7708,2.7708,2.7708,0,2.7676,2.7664,2.7697,2.7683,2.7684,2.7728,2.7705,2.7711,2.7722,2.7721,2.7743,2.7731,2.7741,2.7714,2.7697,2.7697,2.7692,2.7711,2.764,2.7633,2.7626,2.7604,2.7595,2.7705,2.7705,2.7705,2.7706,0,2.7605,2.7596,2.7576,2.7588,2.7587,2.7568,2.7598,2.7593,2.7615,2.7632,2.7612,2.7626,2.7626,2.7621,2.7641,2.7597,2.7608,2.7634,2.7671,2.7612,2.7591,2.7583,2.7699,2.7701,2.7702,2.7703,0,0,2.7494,2.7525,2.7517,2.7523,2.7542,2.7535,2.7519,2.752,2.7515,2.7522,2.7508,2.7499,2.7524,2.7525,2.7547,2.7531,2.7477,2.7559,2.756,2.7543,2.7429,2.7409,2.7399,2.7495,2.7494,2.7493,2.7428,0,2.7427,2.7402,2.7432,2.74,2.7392,2.7434,2.742,2.7429,2.7445,2.744,2.7456,2.745,2.7483,2.7484,2.747,2.7487,2.7455,2.7492,2.7482,2.7481,2.7478,2.7388,2.7367,2.7305,2.742,2.7419,2.7418,0,2.7346,2.7351,2.7318,2.734,2.7338,2.7324,2.7329,2.7324,2.7335,2.7348,2.735,2.7377,2.7362,2.7398,2.7377,2.7402,2.74,2.7407,2.7406,2.7405,2.7446,2.7385,2.7286,2.7277,2.7406,2.7407,2.7408,0,2.7268,2.7266,2.7247,2.725,2.7275,2.7265,2.7274,2.7288,2.7287,2.7291,2.7291,2.7292,2.7292,2.7292,2.7318,2.7342,2.7293,2.7332,2.7303,2.7302,2.729,2.729,2.7189,2.7289,2.7289,2.7289,2.7289,0,2.7191,2.7169,2.7212,2.72,2.7177,2.7212,2.7187,2.7201,2.7213,2.7204,2.724,2.723,2.7266,2.7259,2.728,2.7259,2.7259,2.7268,2.7273,2.7265,2.7263,2.7263,2.7268,2.7287,2.7287,2.7288,2.7288,0,2.7099,2.7127,2.7109,2.7135,2.7141,2.7123,2.7144,2.7134,2.7153,2.714,2.7139,2.7168,2.7163,2.7189,2.7188,2.7202,2.7171,2.7184,2.7167,2.7171,2.714,2.7142,2.7035,2.7022,2.713,2.7129,2.7128,0,2.7048,2.7033,2.7057,2.7055,2.7063,2.7058,2.7058,2.7091,2.709,2.7102,2.709,2.7088,2.7089,2.7078,2.7098,2.7097,2.711,2.7073,2.711,2.7102,2.711,2.711,2.7109,2.7065,2.7063,2.7062,2.7061,0,2.6953,2.6968,2.6968,2.6972,2.6972,2.6977,2.6984,2.6979,2.7015,2.7012,2.7008,2.7008,2.7008,2.7005,2.7009,2.7018,2.7045,2.705,2.7043,2.7033,2.7024,2.7029,2.7145,2.7052,2.7053,2.7053,2.7054,2.7054,2.6881,2.6869,2.6885,2.6884,2.6893,2.6899,2.6891,2.6909,2.6907,2.691,2.693,2.6922,2.6935,2.6943,2.695,2.6944,2.6961,2.6951,2.6948,2.6945,2.694,2.7026,2.6944,2.6945,2.6945,2.6945,2.6945,0,2.6788,2.6801,2.6799,2.6809,2.6807,2.6835,2.6845,2.6841,2.6835,2.6845,2.6845,2.684,2.6838,2.6859,2.6859,2.6851,2.6863,2.6849,2.685,2.6852,2.6924,2.693,2.6839,2.6839,2.6839,2.6839,2.684,2.684,2.674,2.6722,2.6739,2.6726,2.6739,2.6733,2.6736,2.6742,2.675,2.6744,2.6743,2.6757,2.6772,2.6774,2.6773,2.6779,2.6777,2.6759,2.6769,2.6836,2.6847,2.6856,2.6862,2.6759,2.6759,2.6698,2.6697,2.6697]}]]